FW7925 Weather Reports


time (UTC)temp
C
wind
direction
speed
KPH
gust
KPH
rain 1hr
cm
rain 24hr
cm
rain mn
cm
humidity
%
barometer
mb
20260906113106 -17 0.0 0.0 0.00 0.05 0.00 1012.5
20260906111559 -17 0.0 0.0 0.00 0.05 0.00 1012.5
20260906104604 -17 0.0 0.0 0.00 0.05 0.00 1012.4
20260906103105 -17 0.0 0.0 0.00 0.05 0.00 1012.3
20260906101608 -17 0.0 0.0 0.00 0.05 0.00 1012.4
20260906100058 -17 0.0 0.0 0.00 0.05 0.00 1012.4
20260906094610 -17 0.0 0.0 0.00 0.05 0.00 1012.4
20260906093112 -17 0.0 0.0 0.00 0.05 0.00 1012.4
20260906091600 -17 0.0 0.0 0.00 0.05 0.00 1012.4
20260906090138 -17 0.0 0.0 0.00 0.05 0.00 1012.2
20260906084620 -17 0.0 0.0 0.00 0.05 0.00 1012.1
20260906083100 -17 0.0 0.0 0.00 0.05 0.00 1012.0
20260906081604 -17 0.0 0.0 0.00 0.05 0.00 1012.0
20260906080110 -17 0.0 0.0 0.00 0.05 0.00 1012.0
20260906074604 -17 0.0 0.0 0.00 0.05 0.00 1011.9
20260906073059 -17 0.0 0.0 0.00 0.05 0.00 1011.9
20260906071602 -17 0.0 0.0 0.00 0.05 0.00 1012.0
20260906070103 -17 0.0 0.0 0.00 0.05 0.00 1012.0
20260906064556 -17 0.0 0.0 0.00 0.05 0.00 1012.2
20260906063059 -17 0.0 0.0 0.00 0.05 0.00 1012.1
20260906061607 -17 0.0 0.0 0.00 0.05 0.00 1012.3
20260906060106 -17 0.0 0.0 0.00 0.05 0.00 1012.3
20260906054607 -17 0.0 0.0 0.00 0.05 0.00 1012.6
20260906053118 -17 0.0 0.0 0.00 0.05 0.00 1012.6
20260906051601 -17 0.0 0.0 0.00 0.05 0.00 1012.9
20260906050104 -17 0.0 0.0 0.00 0.05 0.00 1012.8
20260906044606 -17 0.0 0.0 0.00 0.05 0.00 1012.9
20260906043102 -17 0.0 0.0 0.00 0.05 0.00 1012.8
20260906041604 -17 0.0 0.0 0.00 0.05 0.00 1013.0
20260906040058 -17 0.0 0.0 0.00 0.05 0.00 1012.8
20260906034600 -17 0.0 0.0 0.00 0.05 0.05 1013.1
20260906033100 -17 0.0 0.0 0.00 0.05 0.05 1012.9
20260906031600 -17 0.0 0.0 0.00 0.05 0.05 1013.3
20260906030104 -17 0.0 0.0 0.00 0.05 0.05 1013.3
20260906024622 -17 0.0 0.0 0.00 0.05 0.05 1013.4
20260906023107 -17 0.0 0.0 0.00 0.05 0.05 1013.5
20260906021603 -17 0.0 0.0 0.00 0.05 0.05 1013.5
20260906020101 -17 0.0 0.0 0.00 0.05 0.05 1013.4
20260906014559 -17 0.0 0.0 0.00 0.05 0.05 1013.2
20260906013104 23 0 0.0 0.0 0.00 0.05 0.05 60 1013.0
20260906011605 23 0 0.0 0.0 0.00 0.05 0.05 56 1013.3
20260906010131 24 0 0.0 0.0 0.00 0.05 0.05 58 1012.4
20260906004604 24 0 0.0 0.0 0.00 0.05 0.05 62 1012.0
20260906003105 24 0 0.0 0.0 0.00 0.05 0.05 65 1011.9
20260906001613 24 0 0.0 0.0 0.00 0.05 0.05 69 1011.7
20260906000104 25 0 0.0 0.0 0.00 0.05 0.05 70 1011.6
20260905234558 25 0 0.0 0.0 0.00 0.05 0.05 72 1011.0
20260905233057 25 0 0.0 0.0 0.03 0.05 0.05 75 1011.0
20260905231603 25 0 0.0 3.2 0.05 0.05 0.05 76 1011.2
20260905230113 25 105 0.0 1.6 0.05 0.05 0.05 76 1011.6
20260905224601 25 91 0.0 3.2 0.05 0.05 0.05 76 1012.0
20260905223101 28 0 0.0 1.6 0.03 0.03 0.03 71 1011.6
20260905221600 30 0 0.0 1.6 0.00 0.00 0.00 58 1012.3
20260905220104 31 0 0.0 3.2 0.00 0.00 0.00 56 1010.9
20260905214603 31 0 0.0 0.0 0.00 0.00 0.00 66 1010.7
20260905213105 31 0 0.0 0.0 0.00 0.00 0.00 66 1010.5
20260905211606 31 0 0.0 0.0 0.00 0.00 0.00 66 1010.2
20260905210104 31 0 0.0 0.0 0.00 0.00 0.00 63 1010.6
20260905204610 32 0 0.0 0.0 0.00 0.00 0.00 63 1011.0
20260905203104 31 0 0.0 0.0 0.00 0.00 0.00 61 1011.1
20260905201609 32 0 0.0 0.0 0.00 0.00 0.00 61 1011.1
20260905194602 32 0 0.0 0.0 0.00 0.00 0.00 62 1011.6
20260905193107 32 0 0.0 0.0 0.00 0.00 0.00 61 1011.7
20260905191601 32 0 0.0 0.0 0.00 0.00 0.00 58 1011.8
20260905190104 32 0 0.0 0.0 0.00 0.00 0.00 61 1012.2
20260905184613 32 0 0.0 0.0 0.00 0.00 0.00 59 1012.4
20260905183115 33 0 0.0 1.6 0.00 0.00 0.00 54 1012.4
20260905181603 33 0 0.0 0.0 0.00 0.00 0.00 59 1012.8
20260905180110 33 0 0.0 0.0 0.00 0.00 0.00 60 1012.9
20260905174605 33 0 0.0 0.0 0.00 0.00 0.00 60 1013.2
20260905173101 33 0 0.0 1.6 0.00 0.00 0.00 62 1013.4
20260905171605 32 0 0.0 1.6 0.00 0.00 0.00 64 1013.5
20260905170109 31 0 0.0 0.0 0.00 0.00 0.00 67 1013.7
20260905164606 30 0 0.0 1.6 0.00 0.00 0.00 69 1013.9
20260905163101 30 0 0.0 0.0 0.00 0.00 0.00 70 1013.9
20260905161605 30 0 0.0 1.6 0.00 0.00 0.00 70 1014.3
20260905160106 29 0 0.0 0.0 0.00 0.00 0.00 72 1014.5
20260905154605 28 0 0.0 0.0 0.00 0.00 0.00 74 1014.6
20260905153105 28 0 0.0 1.6 0.00 0.00 0.00 75 1014.6
20260905151602 27 0 0.0 0.0 0.00 0.00 0.00 75 1014.7
20260905144609 26 0 0.0 0.0 0.00 0.00 0.00 73 1014.7
20260905143104 26 0 0.0 0.0 0.00 0.00 0.00 73 1014.9
20260905141603 26 0 0.0 0.0 0.00 0.00 0.00 68 1014.8
20260905140127 25 0 0.0 0.0 0.00 0.00 0.00 65 1015.1
20260905134606 25 0 0.0 0.0 0.00 0.00 0.00 61 1014.9
20260905133103 24 0 0.0 0.0 0.00 0.00 0.00 42 1015.1
20260905131625 23 0 0.0 0.0 0.00 0.00 0.00 20 1015.2
20260905130105 23 0 0.0 0.0 0.00 0.00 0.00 15 1015.3
20260905124600 -17 0.0 0.0 0.00 0.00 0.00 1015.3
20260905123107 -17 0.0 0.0 0.00 0.00 0.00 1015.1
20260905121605 -17 0.0 0.0 0.00 0.00 0.00 1015.0
20260905120105 -17 0.0 0.0 0.00 0.00 0.00 1014.9
20260905114600 -17 0.0 0.0 0.00 0.00 0.00 1014.6